TIME,DELAY(SENSOR),PRES,OXYGEN,RAWTEMP,T(OPTODE),TCPHASE,FLUOR,BETA(BETA700),BETA(BETA412),BETA(BETA440),CDOM,C(CSC),ED(ED412.20),ED(ED444.00),ED(ED489.60),ED(ED554.30),LU(LU412.10),LU(LU443.90),LU(LU489.70),LU(LU554.70),COMP,TILTX,TILTY,CHECK
1360809673,5808,867.9500122070312000,31.3412208557128900,558.5136108398438000,4.5319519042968750,56.8578186035156250,56,99,101,78,82,15535,0,0,0,0,2147121929,2147772150,2147573120,2147570276,2822,2,13,10015
1360813269,5809,940.0399780273438000,38.1975708007812500,565.8264770507812000,4.3051819801330570,55.8403587341308600,55,100,100,78,81,15535,0,0,0,0,2147124306,2147774656,2147569618,2147570093,754,2,13,14229
1360816869,5808,945.5499877929688000,40.5708503723144500,566.3427734375000000,4.2891540527343750,55.4885902404785160,55,98,101,78,82,15527,0,0,0,0,2147125915,2147778669,2147573403,2147567533,181,3,13,21027
1360820469,5809,973.5999755859375000,41.8110694885253900,569.5756835937500000,4.1887440681457520,55.3405799865722660,54,99,99,78,82,15534,0,0,0,0,2147122358,2147769764,2147572178,2147568713,115,3,13,60068
1360824069,5809,977.6599731445312000,42.3432197570800800,570.5457763671875000,4.1585998535156250,55.2778205871582000,55,98,99,78,80,15525,0,0,0,0,2147123949,2147771291,2147571574,2147572160,38,3,13,64672
1360827669,5809,975.6300048828125000,43.0532798767089840,571.6743164062500000,4.1235179901123050,55.1863288879394500,54,99,100,78,82,15533,0,0,0,0,2147121920,2147771529,2147576905,2147570258,3497,2,13,39895
1360831269,5810,976.0700073242188000,42.5156898498535160,570.8875122070312000,4.1479802131652830,55.2530097961425800,55,99,100,77,82,15533,0,0,0,0,2147123346,2147772470,2147570002,2147568384,3512,2,13,29983
1360834869,5808,975.7500000000000000,42.9511985778808600,571.5294189453125000,4.1280231475830080,55.1966094970703100,54,97,100,79,82,15534,0,0,0,0,2147125056,2147771849,2147569170,2147569920,135,3,13,2107
1360838469,5808,976.9000244140625000,42.7960014343261700,571.5294189453125000,4.1280231475830080,55.2184791564941400,55,99,100,77,81,15534,0,0,0,0,2147121773,2147774217,2147573833,2147569152,290,2,13,12103
1360842069,5808,978.9099731445312000,42.8865013122558600,571.6796264648438000,4.1233539581298830,55.2047080993652340,54,98,101,78,83,15535,0,0,0,0,2147125750,2147771638,2147574061,2147570313,60,3,13,866
1360845669,5808,980.6699829101562000,42.5365104675293000,571.2656860351562000,4.1362209320068360,55.2568283081054700,54,103,100,78,83,15531,0,0,0,0,2147124909,2147771437,2147573248,2147569216,3543,2,13,48833
1360849269,5809,979.0700073242188000,42.8916282653808600,571.6303100585938000,4.1248869895935060,55.2058715820312500,54,97,100,78,82,15531,0,0,0,0,2147124132,2147777188,2147572498,2147568996,3423,2,13,61789
1360852869,5811,985.6500244140625000,42.7763214111328100,571.5029296875000000,4.1288490295410160,55.2236099243164060,56,98,99,77,83,15534,0,0,0,0,2147121024,2147770642,2147571337,2147566317,292,2,13,64398
1360856469,5810,987.5100097656250000,42.7250900268554700,571.4202270507812000,4.1314201354980470,55.2273101806640600,55,98,100,79,82,15526,0,0,0,0,2147120557,2147772297,2147575579,2147564800,520,3,13,46256
1360860069,5811,981.1699829101562000,42.5368804931640600,571.4537963867188000,4.1303749084472660,55.2548103332519500,56,99,101,79,82,15533,0,0,0,0,2147123062,2147766701,2147577508,2147569316,352,2,13,39491
1360863669,5810,978.9099731445312000,42.5388488769531250,572.2619018554688000,4.1052489280700680,55.2677612304687500,55,100,100,78,82,15531,0,0,0,0,2147125092,2147768658,2147575094,2147570349,40,3,13,64233
1360867269,5811,989.6199951171875000,42.4278297424316400,571.3825073242188000,4.1325907707214355,55.2737693786621100,54,99,100,77,81,15532,0,0,0,0,2147122688,2147772425,2147574555,2147565659,191,2,13,25945
1360870869,5809,992.6699829101562000,42.4659500122070300,570.7910156250000000,4.1509780883789060,55.2616615295410160,55,100,102,78,82,15528,0,0,0,0,2147126454,2147771565,2147575186,2147571638,3491,2,13,55047
1360874469,5812,996.3400268554688000,41.6760101318359400,570.4133300781250000,4.1627178192138670,55.3691596984863300,54,98,99,78,82,15527,0,0,0,0,2147124050,2147776795,2147576768,2147567917,233,2,13,54385
1360878069,5810,990.8300170898438000,41.4371986389160160,570.3878784179688000,4.1635060310363770,55.4075202941894500,55,102,99,77,82,15528,0,0,0,0,2147126354,2147767798,2147575990,2147569280,97,2,13,47983
1360881669,5808,991.8599853515625000,42.3117599487304700,570.9509887695312000,4.1460041999816895,55.2817192077636700,54,97,101,78,82,15527,0,0,0,0,2147122971,2147769499,2147577188,2147569618,3583,2,13,62371
1360885269,5811,993.8800048828125000,41.8241310119628900,570.1693115234375000,4.1703000068664550,55.3505706787109400,54,97,99,77,83,15526,0,0,0,0,2147125504,2147771245,2147576018,2147571218,3511,2,13,33327
1360888869,5809,997.0499877929688000,42.3027305603027340,570.7808837890625000,4.1512928009033200,55.2855300903320300,55,97,100,78,82,15524,0,0,0,0,2147121590,2147771446,2147575067,2147567826,3136,2,13,57000
1360892469,5809,992.2299804687500000,41.9434700012207000,570.9744873046875000,4.1452732086181640,55.3392181396484400,54,98,100,78,82,15526,0,0,0,0,2147120530,2147773869,2147578468,2147567478,3551,2,13,30483
1360896069,5808,992.5100097656250000,40.7530288696289060,570.1478271484375000,4.1709690093994140,55.5023002624511700,55,100,100,78,82,15524,0,0,0,0,2147124260,2147772781,2147578742,2147572937,182,3,13,17080
1360899669,5810,992.4299926757812000,41.8262100219726560,571.2446899414062000,4.1368751525878910,55.3603515625000000,56,97,100,78,83,15526,0,0,0,0,2147116928,2147766921,2147577051,2147566189,54,3,13,28892
1360903269,5811,992.2500000000000000,42.1049194335937500,571.2957153320312000,4.1352901458740230,55.3196907043457000,55,97,101,77,81,15524,0,0,0,0,2147124937,2147772690,2147577133,2147569700,38,3,13,60571
1360906869,5810,984.8400268554688000,42.1869888305664060,571.6040039062500000,4.1257061958312990,55.3132591247558600,56,99,100,78,82,15521,0,0,0,0,2147124196,2147774857,2147572434,2147570724,93,3,13,41901
1360910469,5808,982.5499877929688000,42.3960189819335940,572.7020874023438000,4.0915579795837400,55.2897605895996100,54,98,99,78,81,15523,0,0,0,0,2147121856,2147774308,2147576411,2147569106,3580,2,13,53878
1360914069,5811,986.2000122070312000,42.2884216308593750,573.1936035156250000,4.0762748718261720,55.3157310485839840,56,98,99,77,81,15525,0,0,0,0,2147122477,2147771657,2147580260,2147566180,199,2,13,20268
1360917669,5808,988.6699829101562000,42.2052116394043000,572.7084960937500000,4.0913619995117190,55.3180198669433600,55,98,100,77,83,15523,0,0,0,0,2147119515,2147770048,2147574628,2147568722,3482,2,13,56623
1360921269,5812,994.2999877929688000,42.6062393188476560,571.8834838867188000,4.1170158386230470,55.2533493041992200,55,98,101,78,81,15524,0,0,0,0,2147123090,2147769929,2147574381,2147574125,3043,2,13,19436
1360924869,5811,990.7199707031250000,41.9561996459960940,570.9586181640625000,4.1457691192626950,55.3379402160644500,55,98,99,77,81,15522,0,0,0,0,2147122496,2147768640,2147576237,2147567652,15,3,13,56233
1360928469,5810,989.5000000000000000,42.2566299438476560,571.5192871093750000,4.1283378601074220,55.2964897155761700,55,99,101,77,81,15522,0,0,0,0,2147121673,2147771163,2147573970,2147565494,636,2,13,37925
1360932069,5812,987.7199707031250000,41.9279708862304700,572.1245117187500000,4.1095237731933590,55.3516197204589840,54,101,99,78,82,15524,0,0,0,0,2147126262,2147766363,2147573056,2147567204,73,2,13,50108
1360935669,5809,992.4899902343750000,42.2377891540527340,571.5925903320312000,4.1260600090026855,55.3043708801269500,55,97,98,78,81,15521,0,0,0,0,2147120192,2147769737,2147573120,2147571904,126,2,13,2621
1360939269,5809,990.1900024414062000,41.9215698242187500,571.9725952148438000,4.1142439842224120,55.3538093566894500,55,98,99,79,82,15520,0,0,0,0,2147120301,2147768137,2147574400,2147570102,3521,2,13,14654
1360942869,5809,988.0900268554688000,41.7576408386230500,572.0792846679688000,4.1109280586242680,55.3771286010742200,54,101,100,77,82,15518,0,0,0,0,2147120237,2147775305,2147574308,2147562898,239,2,13,7978
1360946469,5808,991.3300170898438000,42.2592086791992200,571.5629882812500000,4.1269798278808590,55.2960891723632800,54,98,101,79,82,15522,0,0,0,0,2147123209,2147768438,2147575954,2147568704,3308,2,13,51614
1360950069,5809,990.4299926757812000,42.2291908264160160,572.2506103515625000,4.1055998802185060,55.3065681457519500,55,99,100,77,82,15521,0,0,0,0,2147121106,2147770962,2147577846,2147569837,3497,3,13,9270
1360953669,5812,996.3800048828125000,42.1805305480957000,571.9114990234375000,4.1161441802978520,55.3127098083496100,54,99,100,78,82,15523,0,0,0,0,2147121005,2147775506,2147574857,2147568521,46,2,13,41397
1360955755,5811,992.8800048828125000,42.0802612304687500,571.4213256835938000,4.1313838958740230,55.3252906799316400,56,98,100,78,82,15521,0,0,0,0,2147125101,2147772050,2147576649,2147570962,601,2,13,24526
